Location: Round Knob
(37.2473°N, 88.7376°W)
Time: 10:53:16
(UTC+00:00)

N. Korean satellite - Visible Passes

Search period start: 29 November 2022 00:00
Search period end: 09 December 2022 00:00
Orbit: 421 x 454 km, 97.3° (Epoch: 28 November)

Date Brightness Start Highest point End Pass type
(mag) Time Alt. Az. Time Alt. Az. Time Alt. Az.
29 Nov 6.5 11:27:08 10° N 11:30:28 53° WNW 11:33:46 10° SSW visible
29 Nov 9.9 23:28:32 10° WSW 23:30:05 13° W 23:31:39 10° WNW visible
30 Nov 7.9 10:48:35 10° NNE 10:51:47 37° E 10:54:56 10° SSE visible
30 Nov 8.5 12:23:26 10° WNW 12:23:53 10° WNW 12:24:20 10° WNW visible
01 Dec 9.9 10:11:48 10° ENE 10:12:50 11° E 10:13:53 10° ESE visible
01 Dec 7.1 11:42:22 10° N 11:45:27 32° WNW 11:48:29 10° SW visible
02 Dec 6.8 11:03:22 10° NNE 11:06:46 64° E 11:10:06 10° S visible
02 Dec 9.0 23:03:16 10° SSW 23:06:09 26° W 23:09:04 10° NW visible
03 Dec 9.3 10:25:29 10° NE 10:27:50 17° E 10:30:10 10° SE visible
03 Dec 7.7 11:57:40 10° NNW 12:00:14 20° WNW 12:02:47 10° WSW visible
04 Dec 6.2 11:18:10 10° N 11:21:34 74° WNW 11:24:54 10° SSW visible
04 Dec 9.6 23:18:43 10° SW 23:21:00 17° W 23:23:19 10° NW visible
05 Dec 8.5 10:39:42 10° NE 10:42:39 27° E 10:45:33 10° SSE visible
05 Dec 8.2 12:13:09 10° NW 12:14:51 13° WNW 12:16:33 10° W visible
06 Dec 6.6 11:32:58 10° N 11:36:12 43° WNW 11:39:23 10° SSW visible
06 Dec 10.1 23:34:49 10° WSW 23:35:45 11° W 23:36:40 10° WNW visible
07 Dec 7.5 10:54:02 10° NNE 10:57:17 44° E 11:00:29 10° S visible
08 Dec 9.7 10:16:33 10° ENE 10:18:07 13° E 10:19:41 10° ESE visible
08 Dec 7.3 11:47:45 10° NNW 11:50:40 27° WNW 11:53:31 10° SW visible
